Content
SEND FEEDBACK

Daily
Averages
Monthly
Summary
United States of America

NEW YORK - CENTRAL PARK, NEW YORK


Home > North America > United States > New York
Elevation: 14 feet     Latitude: 40 47N     Longitude: 073 58W

WEATHER
 
SELECT A DAY
Number of Records: 148,305;   Date Range: 11/1/95 - 9/16/14
 
SHARE

PRINT THIS DATA

[ ← Previous Day ]
WEATHER ALMANAC - SEPTEMBER 2, 2014
[ Next Day → ]
[ °C ]   °F
Weather ElementAverageHighLow
Temperature84.2 °F91.9 °F (2:51 pm)77 °F (6:51 am)
Dewpoint68.7 °F72 °F (1:51 am)64 °F (5:51 pm)
Humidity61.2 %84 % (6:51 am)42 % (4:51 pm)
Barometer29.87 in29.93 in (9:51 am)29.80 in (5:51 pm)
Wind Speed5.3 mph13.8 mph (10:51 pm)
Wind Gust24.2 mph (11:51 pm)
Weather ElementAverage
Visibility9.9 mi
Wind DirectionE (88.7 °)

Weather ElementTotal
Precipitation---
Cooling Degree Days19.5 (Base 65)
Growing Degree Days34.5 (Base 50)
Averaged from 23 records on September 2, 2014
WEATHER CONDITIONS BREAKOUT
WIND DIRECTION BREAKOUT
WEATHER BY HOUR - SEPTEMBER 2, 2014
[ °C ]   °F
Local TimeTemperatureDewpointHumidityBarometerVisibilityWind DirectionWind SpeedGust SpeedPrecipitationEventsConditions
1:51 AM79.0 °F72.0 °F79 %29.92 in10.0 miWSW (240°)5.8 mphClear
2:51 AM80.1 °F72.0 °F76 %29.92 in10.0 miVariable5.8 mphClear
3:51 AM78.1 °F72.0 °F81 %29.91 in10.0 miCalmClear
4:51 AM78.1 °F72.0 °F81 %29.90 in10.0 miVariable3.5 mphClear
5:51 AM78.1 °F72.0 °F81 %29.90 in10.0 miVariable4.6 mphClear
6:51 AM77.0 °F72.0 °F84 %29.91 in9.0 miWest (270°)4.6 mphClear
7:51 AM79.0 °F72.0 °F79 %29.92 in10.0 miVariable3.5 mphClear
8:51 AM81.0 °F72.0 °F74 %29.92 in10.0 miCalmClear
9:51 AM82.0 °F71.1 °F69 %29.93 in10.0 miVariable3.5 mphPartly Cloudy
10:51 AM86.0 °F70.0 °F59 %29.92 in10.0 miVariable3.5 mphClear
11:51 AM88.0 °F70.0 °F55 %29.91 in10.0 miVariable3.5 mphClear
12:51 PM91.0 °F69.1 °F48 %29.88 in10.0 miCalmClear
1:51 PM88.0 °F66.9 °F49 %29.87 in10.0 miVariable6.9 mphMostly Cloudy
2:51 PM91.9 °F68.0 °F45 %29.84 in10.0 miVariable3.5 mphClear
3:51 PM89.1 °F66.0 °F46 %29.82 in9.0 miWSW (250°)8.1 mphMostly Cloudy
4:51 PM91.0 °F64.9 °F42 %29.82 in10.0 miNorthPartly Cloudy
5:51 PM88.0 °F64.0 °F45 %29.80 in10.0 miVariable4.6 mphPartly Cloudy
6:51 PM89.1 °F64.0 °F43 %29.80 in10.0 miWSW (240°)10.4 mph18.4 mphClear
7:51 PM86.0 °F64.0 °F48 %29.81 in10.0 miWest (260°)6.9 mphClear
8:51 PM86.0 °F69.1 °F57 %29.81 in10.0 miVariable4.6 mphClear
9:51 PM84.0 °F69.1 °F61 %29.81 in10.0 miWSW (250°)10.4 mph17.3 mphClear
10:51 PM84.2 °F64.4 °F51 %29.82 in10.0 miWSW (250°)13.8 mph21.9 mphClear
11:51 PM82.0 °F64.0 °F54 %29.82 in10.0 miWest (280°)8.1 mph24.2 mphClear
Hourly data recorded from KNYC, located miles away from New York - Central Park, New York







STORIES FROM OUR PARTNERS